Back to catalog

STARLINK-11161

AliveCommunicationsVLEO
NORAD 60124·PAYLOAD·🇺🇸 United States

Launched Jun 24, 2024 from Vandenberg Space Force Base

Loading…

Next Passes (next 24 hours)

TLE

FreshSource: CelesTrak SupGP

Epoch: Sep 14, 2026, 20:59 UTC

1 60124C 24118M   26257.87479167  .00027830  00000+0  22912-3 0  2575
2 60124  53.1564   9.0148 0000995  85.9700 213.2650 15.69708249    14

Track STARLINK-11161 in real time with AllMySat

Download on the App Store